Hourly Data Report for October 18, 2015

All times are specified in Local Standard Time (LST). Add 1 hour to adjust for Daylight Saving Time where and when it is observed.

QIKIQTARJUAQ A
NUNAVUT

67°32'48.000" N
64°01'54.000" W
5.50 m
2400577
YVM

Download Data

Hourly Data (October 2015)
Hourly Data Report for October 18, 2015
Temp Definition
°C
Dew Point Temp Definition
°C
Rel Hum Definition
%
Wind Dir Definition
10's deg

Wind Spd Definition
km/h
Visibility Definition
km
Stn Press Definition
kPa
Hmdx Definition


Wind Chill Definition


Weather Definition


TIME
00:00 Legend Double Dagger -5.2 -9.4 73 19 5 16.1 100.65   -7 LegendNANA
01:00 Legend Double Dagger -5.2 -9.6 72 17 9 16.1 100.68   -9 LegendNANA
02:00 Legend Double Dagger -5.2 -8.8 76 LegendMM 4 16.1 100.69   -7 Snow
03:00 Legend Double Dagger -5.1 -6.6 89 35 11 2.8 100.72   -10 Snow
04:00 Legend Double Dagger -4.9 -7.3 84 1 21 6.4 100.73   -12 Snow
05:00 Legend Double Dagger -5.0 -7.7 82 36 21 11.3 100.75   -12 Snow
06:00 Legend Double Dagger -5.2 -8.6 77 36 15 14.5 100.77   -11 Snow
07:00 Legend Double Dagger -5.5 -7.7 84 34 5 3.6 100.76   -8 Snow
08:00 Legend Double Dagger -5.3 -8.3 80 31 5 16.1 100.75   -8 Snow
09:00 Legend Double Dagger -5.1 -8.4 78 33 9 16.1 100.75   -9 Snow
10:00 Legend Double Dagger -5.2 -8.2 79 25 5 16.1 100.75   -7 LegendNANA
11:00 Legend Double Dagger -4.7 -9.3 71 36 5 16.1 100.73   -7 LegendNANA
12:00 Legend Double Dagger -6.8 -9.7 80 12 8 16.1 100.72   -11 LegendNANA
13:00 Legend Double Dagger -4.9 -8.7 75   0 16.1 100.74     Snow
14:00 Legend Double Dagger -5.7 -7.4 88 7 8 12.9 100.74   -9 Snow
15:00 Legend Double Dagger -5.7 -7.8 85 15 5 16.1 100.75   -8 Snow
16:00 Legend Double Dagger -5.5 -8.9 77 19 4 16.1 100.76   -7 LegendNANA
17:00 Legend Double Dagger -5.9 -9.0 79 17 5 16.1 100.75   -8 LegendNANA
18:00 Legend Double Dagger -5.4 -8.8 77 19 13 16.1 100.75   -11 LegendNANA
19:00 Legend Double Dagger -5.2 -9.7 71 17 11 16.1 100.77   -10 LegendNANA
20:00 Legend Double Dagger -6.0 -9.5 77 15 11 16.1 100.78   -11 LegendNANA
21:00 Legend Double Dagger -6.1 -9.1 79   0 16.1 100.78     Snow
22:00 Legend Double Dagger -7.4 -9.8 83 14 9 16.1 100.78   -12 LegendNANA
23:00 Legend Double Dagger -6.5 -9.4 80 18 4 16.1 100.77   -8 LegendNANA

Notes on Data Quality.

Legend

  • E = Estimated
  • M = Missing
  • NA = Not Available
  • ‡ = Partner data that is not subject to review by the National Climate Archives
Date modified: